Location: Saluda
(35.2377°N, 82.3468°W)
Time: 03:28:23
(UTC+00:00)

Vanguard 2 Rocket - Pass Details

Date: 12 October 2022
Orbit: 555 x 3321 km, 32.9° (Epoch: 05 December)

Event Time Altitude Azimuth Distance (km) Brightness Sun altitude
Rises 21:57:39 0° 202° (SSW) 6,503 11.9 11.2°
Reaches altitude 10° 22:02:32 10° 193° (SSW) 5,796 11.5 10.2°
Maximum altitude 22:17:46 31° 139° (SE) 4,723 10.4 7.2°
Drops below altitude 10° 22:33:16 10° 87° (E) 5,965 10.4 4.2°
Sets 22:38:16 0° 78° (ENE) 6,720 10.6 3.2°
